Lapse_Rate
7.0 7.4 8.1 9.5 9.4 8.5 8.4 9.2 8.9 7.9 7.7 7.3 7.5 7.4 7.1 6.6 6.6 6.7 6.7 6.8 6.5 6.1 5.8 5.5 5.3 5.0 4.9 4.8 5.2 5.3 5.6 5.8 5.5 5.5 5.3 5.1 5.2 4.7 3.9 4.0 4.3 4.9 5.4 5.4
7.6 7.7 8.3 9.5 8.4 8.3 8.7 8.9 9.2 7.6 7.7 7.5 7.8 7.6 7.6 7.4 6.9 7.0 6.8 6.8 6.7 6.3 5.9 5.7 5.5 5.3 5.1 4.7 5.1 5.7 5.5 5.6 5.7 5.6 5.5 5.2 5.1 4.8 5.3 4.5 5.1 5.4 5.5 5.5
8.0 9.5 8.5 8.6 8.4 8.8 9.4 9.2 8.9 8.9 8.2 8.1 8.1 8.2 8.0 7.9 7.3 6.9 7.0 7.1 7.1 6.7 6.3 5.9 5.9 5.3 5.2 4.9 4.9 5.6 5.8 5.6 5.7 5.7 5.6 5.5 5.3 5.2 5.3 5.4 5.2 5.4 5.3 5.4
7.9 8.5 8.2 8.3 8.7 9.3 9.6 9.0 9.1 9.2 8.3 7.6 7.7 7.3 7.1 8.4 8.0 7.5 7.0 6.9 7.1 6.9 6.7 6.2 6.2 5.7 5.4 5.0 5.3 5.6 5.8 5.8 5.7 5.8 5.8 5.6 5.5 5.4 5.3 5.4 5.3 5.6 5.3 5.5
8.4 8.1 8.4 8.4 9.2 9.1 9.5 8.8 8.8 8.7 8.6 9.3 8.6 8.1 8.2 8.5 8.8 7.9 7.7 7.3 7.1 7.1 6.8 6.5 6.1 6.0 5.7 5.1 5.0 5.6 5.8 5.9 5.8 5.7 5.7 5.7 5.7 5.3 5.3 5.5 5.3 5.3 5.3 5.4
8.1 8.1 8.4 8.8 9.5 8.8 9.1 8.6 8.9 9.3 9.2 7.6 7.6 7.9 8.9 7.9 9.0 8.2 7.9 7.6 7.4 7.1 7.2 6.8 6.2 6.0 5.9 5.3 5.5 5.6 5.9 6.0 6.0 5.8 5.7 5.6 5.8 5.6 5.6 5.6 5.7 5.7 5.5 5.6
8.0 8.1 8.3 8.5 8.8 9.3 8.9 9.4 9.1 9.4 9.4 7.1 8.6 9.4 9.3 9.2 8.6 8.0 7.7 7.4 7.4 6.9 7.1 6.9 6.3 6.0 5.9 5.5 5.9 6.0 6.1 6.0 5.9 5.9 5.7 5.8 5.9 5.8 5.8 5.8 5.7 5.9 5.4 5.7
9.6 9.2 8.7 8.8 8.6 9.6 9.3 9.5 9.6 9.3 9.9 10.0 9.5 9.2 9.4 8.6 8.6 7.9 7.5 7.4 7.2 6.9 6.9 6.7 6.4 5.9 5.7 6.0 6.2 6.0 6.1 6.1 6.0 5.9 5.8 5.8 5.8 5.8 5.8 5.9 5.7 5.7 5.8 5.1
9.7 9.7 9.6 9.6 9.4 9.4 9.6 9.6 9.6 9.7 9.6 9.8 9.5 8.7 8.3 8.3 8.6 8.2 7.6 7.3 7.1 6.9 6.8 6.6 6.5 6.0 5.8 6.3 6.4 6.3 6.0 6.1 6.1 6.0 5.9 5.8 5.7 5.7 5.8 5.9 5.7 5.7 5.9 5.7
9.6 9.7 9.7 9.6 9.3 9.3 9.2 9.6 9.6 9.6 9.7 9.4 9.2 9.6 8.6 8.3 8.6 8.3 8.0 7.7 7.3 7.0 6.8 6.6 6.2 6.0 6.1 6.4 6.2 6.4 6.5 6.2 6.1 6.0 6.1 6.0 5.8 5.7 5.8 5.9 5.9 5.8 5.9 5.9
9.3 9.6 9.7 9.6 9.1 9.6 9.5 9.4 9.5 9.6 9.8 9.9 9.9 9.3 9.5 9.3 8.7 8.4 8.4 8.1 7.6 7.2 7.0 6.6 6.4 6.2 6.5 6.6 6.5 6.4 6.5 6.4 6.3 6.2 6.2 6.1 6.1 6.1 6.0 6.0 6.0 5.9 6.0 6.1
9.3 9.6 9.6 9.6 9.6 9.6 9.6 9.6 9.6 9.7 9.6 9.6 9.6 8.9 9.0 9.4 9.3 8.6 8.6 8.2 7.9 7.6 7.1 6.8 6.6 6.8 6.7 6.7 6.6 6.4 6.3 6.4 6.4 6.4 6.5 6.5 6.3 6.2 6.2 6.2 6.1 6.0 5.9 5.9
9.6 9.5 9.6 9.6 9.6 9.5 9.5 9.6 9.6 9.6 9.6 9.7 9.8 9.5 9.5 9.2 8.9 8.9 8.9 8.5 7.9 7.5 7.4 7.0 7.4 7.4 7.1 6.9 6.9 6.9 6.7 6.6 6.4 6.3 6.2 6.2 6.2 6.2 6.1 6.0 6.0 6.0 5.9 5.7
8.8 9.3 9.6 9.6 8.6 8.5 9.0 9.6 9.6 9.6 9.7 9.8 9.6 9.6 9.4 9.3 9.3 8.9 8.7 7.9 8.0 7.6 7.2 7.1 7.1 7.4 7.3 7.2 7.0 6.9 6.7 6.7 6.7 6.7 6.6 6.5 6.4 6.3 6.1 5.9 5.8 5.7 5.7 5.6
8.9 9.3 9.1 9.3 9.5 8.8 8.5 8.9 9.3 9.0 9.6 9.6 9.5 9.1 8.8 9.4 9.2 7.4 8.9 8.3 8.2 7.9 7.5 7.5 7.5 7.5 7.4 7.3 7.2 7.1 6.9 6.8 6.7 6.7 6.6 6.5 6.4 6.3 6.2 6.0 5.9 5.7 5.6 5.4
8.6 8.7 9.1 9.2 9.4 9.4 9.2 9.4 9.6 9.6 9.6 9.5 9.6 9.6 9.6 8.7 9.4 8.9 8.8 8.3 8.3 8.0 7.7 7.4 7.7 7.6 7.6 7.5 7.4 7.3 7.1 6.8 6.6 6.6 6.5 6.4 6.3 6.0 5.8 5.6 5.8 5.8 5.7 5.6
8.3 8.5 9.1 9.2 9.3 9.3 9.4 9.3 9.3 9.6 9.5 9.4 9.5 9.6 9.6 9.5 8.9 8.8 8.6 8.5 8.3 8.2 7.9 7.7 7.6 7.9 7.8 7.8 7.6 7.6 7.3 7.3 7.1 6.9 6.6 6.3 6.3 6.0 5.7 5.6 5.5 5.4 5.5 5.6
8.0 8.1 8.6 8.4 8.9 9.4 9.3 9.4 8.4 9.2 9.3 9.4 9.1 9.4 8.9 8.8 9.5 9.2 9.1 9.1 8.7 8.4 8.2 8.0 7.8 7.6 8.2 8.1 7.9 7.9 7.7 7.4 7.2 6.9 6.8 6.8 6.5 6.2 5.9 5.7 5.5 5.5 5.4 5.4
8.0 8.0 8.1 8.5 9.1 9.3 9.4 9.4 9.4 9.4 9.2 9.2 9.3 8.7 9.4 9.3 9.2 8.9 9.1 9.1 9.2 9.1 8.5 7.9 7.7 7.6 8.2 8.2 8.0 7.9 7.7 7.5 7.3 7.1 6.8 6.6 6.4 6.3 6.2 5.9 5.7 5.6 5.9 5.8
8.2 8.7 8.4 8.3 8.6 9.2 9.4 9.4 9.0 8.6 9.3 8.6 8.6 8.4 8.9 9.1 9.2 9.1 9.3 9.2 9.1 9.3 8.7 7.8 8.1 8.4 8.3 8.2 8.1 7.9 7.7 7.5 7.3 7.1 6.9 6.7 6.5 6.2 6.1 6.1 6.0 5.7 5.5 5.7
9.0 9.0 9.2 9.1 8.9 8.7 9.3 9.2 8.7 8.8 8.7 8.4 8.6 8.3 7.8 8.6 8.2 8.9 8.8 8.9 9.0 8.8 8.7 8.8 8.8 8.7 8.6 8.4 8.2 8.0 7.9 7.6 7.4 7.1 6.8 6.6 6.5 6.3 6.1 5.9 5.7 5.8 5.9 5.9
8.4 8.3 8.6 9.1 9.1 9.2 8.9 9.1 8.7 8.6 7.9 8.0 8.3 8.4 9.0 8.8 8.3 8.7 8.9 9.0 9.0 8.9 9.0 9.0 8.8 8.8 8.7 8.4 8.3 8.2 7.9 7.6 7.2 6.9 6.7 6.4 6.2 6.0 5.9 5.9 5.9 6.0 6.1 6.1
8.0 8.6 8.6 8.5 6.9 6.7 7.3 7.3 7.7 7.2 7.4 7.9 8.0 8.2 8.2 8.3 8.6 8.6 8.7 8.8 8.8 8.8 8.8 8.8 8.7 8.7 8.5 8.4 8.3 8.1 7.9 7.6 7.1 6.7 6.5 6.2 5.9 5.9 5.9 6.0 5.9 5.8 5.6 5.6
7.3 7.3 6.9 7.3 7.8 7.4 6.5 6.5 6.5 6.9 7.5 7.7 7.3 8.2 8.3 8.2 8.1 8.4 8.7 8.7 8.6 8.6 8.6 8.6 8.5 8.4 8.3 8.2 8.1 7.9 7.7 7.4 7.0 6.8 6.7 6.4 5.9 5.5 5.2 5.2 5.3 5.3 5.3 5.3
7.1 6.6 6.4 6.6 7.1 7.6 6.8 6.4 5.9 6.5 7.3 7.2 7.5 7.9 8.1 8.1 8.1 7.5 8.2 8.4 8.3 8.3 8.4 8.4 8.3 8.2 8.1 8.1 8.1 7.7 7.3 7.1 7.0 6.9 6.6 6.2 5.5 5.2 5.2 5.2 5.4 5.4 5.6 5.6
7.3 7.2 7.3 7.2 7.1 7.2 6.9 6.0 6.0 6.3 6.4 6.9 7.0 7.6 7.5 7.0 7.4 7.5 7.3 8.4 8.4 8.2 8.3 8.3 8.3 8.2 8.2 8.2 7.9 7.5 7.3 7.1 6.9 6.6 6.2 5.7 5.2 5.2 5.3 5.4 5.4 5.5 5.7 5.8
Wind_Speed
15 13 14 15 5 5 8 11 6 10 2 5 9 8 14 17 17 15 15 16 16 17 15 12 12 13 15 13 12 9 8 6 9 8 8 5 7 8 6 6 4 5 6 4
14 14 16 1 4 10 9 13 0 5 3 7 9 11 12 15 17 17 18 16 13 11 16 14 14 13 12 15 15 11 11 11 11 9 8 6 3 6 5 7 10 7 6 7
17 5 13 4 10 12 12 14 6 1 5 10 13 11 11 15 15 17 17 19 18 17 17 16 11 14 13 14 14 15 14 14 12 11 8 6 4 2 5 6 5 8 11 8
13 16 6 10 12 8 13 6 5 5 10 3 25 2 14 11 15 18 19 18 19 17 15 16 17 16 15 13 14 14 15 16 13 12 11 8 8 8 6 7 6 1 7 9
12 13 12 12 12 4 8 3 10 7 12 8 8 6 7 14 13 14 15 21 20 19 19 18 17 17 15 13 14 14 12 14 13 13 10 10 10 7 8 5 2 4 2 6
18 5 10 16 6 6 9 12 17 16 9 5 5 13 10 7 5 1 5 13 20 19 20 16 15 16 14 14 12 14 16 13 14 14 13 11 11 9 4 9 6 5 8 7
15 16 13 11 10 12 10 18 7 7 8 5 16 10 3 2 3 3 4 8 14 19 15 17 18 15 14 15 13 13 15 14 16 15 14 13 11 10 7 7 9 7 5 5
11 14 19 18 15 15 12 13 6 11 9 2 13 5 5 6 3 4 2 8 13 16 15 15 16 15 15 15 14 13 15 15 16 16 14 12 12 9 9 10 9 8 7 3
4 12 19 19 14 16 16 7 14 13 12 8 6 9 7 4 5 5 8 11 13 15 16 17 17 15 16 15 15 14 14 14 16 17 13 12 12 12 11 9 9 8 5 6
9 8 10 11 8 12 13 15 12 8 4 10 3 9 5 11 8 8 9 13 14 15 16 15 14 13 13 15 14 14 13 14 14 16 15 14 14 14 12 9 9 9 8 8
14 10 8 5 12 15 9 12 12 16 11 7 7 5 5 9 9 8 10 12 15 16 15 14 13 13 15 15 15 15 14 15 14 15 14 14 14 15 14 13 12 11 10 9
13 10 10 14 16 16 7 15 12 6 10 9 10 6 13 8 9 9 9 12 13 15 16 14 12 14 13 14 14 14 13 14 14 14 13 15 14 14 15 14 14 12 11 11
7 10 11 15 14 13 10 14 13 16 12 9 8 7 7 8 5 8 12 9 12 13 14 14 15 13 12 13 11 13 14 14 14 14 14 14 14 14 14 14 13 13 11 11
5 13 15 14 12 7 19 15 17 14 10 10 7 4 15 3 11 12 9 16 14 12 14 14 14 15 15 13 12 12 12 13 12 13 14 12 12 12 14 12 11 12 11 11
7 16 17 21 19 18 15 21 17 11 17 15 4 3 32 17 10 25 15 13 16 15 16 14 15 14 14 14 13 12 12 11 11 11 11 11 11 11 10 10 10 10 11 11
12 13 19 22 22 19 20 19 15 16 13 20 18 10 17 20 6 2 8 13 14 16 16 16 16 16 16 15 14 14 13 12 11 12 12 10 9 10 10 10 10 10 11 11
11 11 13 21 21 18 19 20 18 12 16 13 18 14 8 4 6 6 10 11 13 15 15 16 16 15 14 14 13 14 12 11 11 11 11 11 11 11 11 11 11 11 12 12
16 16 11 15 19 22 19 14 23 11 19 15 21 12 9 11 5 11 13 14 14 14 15 13 13 14 14 14 14 12 12 12 11 11 11 10 10 10 10 10 10 10 10 9
18 16 16 16 17 23 20 17 16 14 17 18 9 23 13 12 3 5 8 10 15 15 13 11 11 11 10 11 11 12 11 11 11 10 10 9 8 8 9 9 8 8 8 8
21 20 14 15 21 23 17 16 8 12 12 12 16 16 10 17 8 7 9 15 8 8 13 12 12 12 12 12 12 11 11 11 10 7 6 4 3 3 5 7 7 6 7 7
12 14 17 17 18 21 17 12 4 11 3 9 11 14 21 10 6 7 6 3 3 7 11 12 13 12 12 11 11 10 9 8 7 5 4 3 1 2 4 6 7 7 6 9
17 11 13 14 21 24 8 13 13 7 4 8 9 10 10 12 4 2 1 4 6 10 13 13 12 11 10 10 9 9 9 7 6 5 5 3 1 2 4 5 7 7 8 9
14 16 13 12 2 8 8 9 8 9 5 7 8 10 12 9 8 3 4 6 8 10 11 10 11 12 10 9 9 10 8 7 6 5 4 3 2 2 1 4 5 6 6 6
13 12 7 15 15 7 13 5 6 8 10 10 9 10 12 9 8 4 5 7 8 8 9 10 12 11 10 8 8 9 8 7 7 6 5 4 4 3 3 3 4 4 4 6
11 2 8 4 25 13 4 9 10 9 10 11 11 11 14 11 11 7 8 8 8 8 8 9 10 10 10 10 9 9 8 7 7 6 5 5 5 3 4 5 5 6 5 3
13 17 11 13 9 11 14 15 10 12 10 12 9 12 12 10 11 8 9 8 8 9 9 9 9 10 10 10 9 9 8 7 7 7 6 3 4 3 3 3 3 3 7 4
Wind_Direction
200 225 234 249 23 359 297 294 318 301 113 265 247 256 173 181 210 195 217 195 197 170 188 187 186 174 163 163 168 173 181 156 175 168 192 205 199 215 208 232 145 154 252 219
218 230 255 356 287 264 257 260 111 194 212 232 254 248 226 200 201 215 201 216 210 180 162 182 191 185 187 173 172 171 179 178 193 192 196 194 194 190 268 227 171 231 208 221
235 271 212 246 231 239 238 280 163 270 253 237 287 263 269 213 199 200 219 209 214 183 188 192 201 191 191 180 187 173 174 190 197 196 200 194 206 193 190 219 215 200 225 225
229 250 218 220 234 252 275 294 279 262 272 108 256 244 294 179 198 199 204 214 215 201 210 166 203 190 189 181 186 188 176 180 198 202 187 171 210 206 201 221 192 9 227 209
223 228 230 225 250 357 306 263 287 260 266 259 356 332 229 255 192 185 211 201 217 197 211 182 205 178 187 184 181 188 171 174 201 188 231 184 231 185 188 224 140 231 193 245
264 219 241 231 219 228 299 253 235 235 262 65 260 260 84 198 7 314 185 206 195 218 191 190 198 168 184 177 185 183 175 183 190 190 212 213 192 254 194 186 197 227 205 209
212 240 216 250 232 220 238 255 241 258 214 223 221 229 111 357 38 338 276 187 191 188 187 183 175 175 182 173 186 183 181 182 196 199 197 208 218 222 247 207 200 210 254 210
206 197 217 213 228 258 218 280 296 292 322 151 190 198 75 18 89 97 134 155 166 179 176 183 171 175 185 181 185 188 178 189 194 198 203 197 202 219 225 205 251 212 223 239
278 244 176 205 207 231 256 223 285 300 264 238 127 77 40 117 98 131 134 152 166 177 171 183 175 183 183 183 184 190 177 193 198 197 195 195 198 226 219 235 205 246 261 276
277 279 195 196 225 245 261 292 288 214 260 248 72 285 112 292 146 126 146 161 165 175 176 180 174 184 185 183 181 191 182 189 196 201 197 205 206 210 228 235 229 239 247 230
249 252 167 170 211 234 182 229 241 279 299 309 241 69 40 107 134 149 155 157 164 171 179 179 176 182 183 185 184 189 187 184 195 200 196 205 208 210 214 223 224 225 232 244
220 245 230 214 224 216 293 279 213 222 220 260 300 162 246 130 130 147 148 154 163 168 173 179 179 177 182 187 187 191 194 194 197 195 199 200 208 213 212 218 227 221 224 226
263 235 261 259 241 199 232 255 262 271 242 219 265 113 122 150 152 161 162 157 152 165 168 173 177 181 190 187 192 191 195 203 200 198 199 207 204 212 222 220 219 230 223 223
312 275 270 276 114 305 302 261 250 256 267 257 250 297 161 211 179 175 199 157 166 174 170 174 177 180 190 186 190 193 199 204 209 204 207 203 208 214 222 221 223 221 226 226
250 265 269 280 289 170 241 265 261 259 286 283 106 103 301 172 116 238 177 170 172 186 175 178 182 180 189 184 183 195 200 205 201 213 211 212 210 214 221 233 229 224 228 229
245 260 284 283 283 287 268 252 259 273 255 267 269 224 146 272 34 277 146 172 190 183 185 182 188 181 189 188 188 191 193 194 199 205 212 216 219 223 227 229 234 237 235 234
258 261 267 255 271 283 274 284 286 259 275 280 282 251 277 180 163 194 167 178 193 196 200 189 192 184 189 187 187 187 186 185 191 200 205 208 211 218 222 224 226 231 233 236
249 258 252 255 274 265 275 272 253 299 292 270 258 274 15 321 252 169 184 181 185 195 199 201 190 178 181 184 183 181 181 182 187 195 204 201 204 219 222 221 229 235 237 234
246 246 256 261 259 271 263 269 266 267 261 274 281 277 234 223 212 273 283 202 186 192 178 179 191 170 164 167 171 169 172 177 181 189 198 197 199 220 232 241 253 271 283 277
243 238 238 247 258 258 267 285 3 345 267 7 342 349 229 259 186 240 304 194 213 220 163 170 166 153 162 163 162 168 170 175 181 165 174 172 195 240 276 285 274 279 264 262
239 228 254 236 239 260 269 286 356 243 324 7 4 11 324 4 35 54 30 29 167 182 147 164 159 163 156 153 157 168 161 165 128 144 157 183 221 284 294 293 289 284 284 276
265 240 254 246 257 259 332 266 224 46 8 4 2 356 336 330 321 10 151 143 154 153 152 162 158 139 140 143 155 150 133 114 136 148 151 145 102 343 347 326 307 319 318 283
256 265 293 287 91 314 342 43 26 13 22 6 341 341 332 313 300 181 165 151 149 150 159 147 142 142 137 144 149 135 136 150 145 136 111 94 71 44 348 316 314 303 310 308
317 314 309 312 257 64 4 63 31 10 359 342 338 337 320 305 286 177 159 163 158 154 161 141 144 145 135 133 126 134 146 140 133 123 119 114 85 84 42 11 5 347 338 326
280 263 286 292 306 299 250 25 350 341 342 340 336 329 313 301 274 182 171 166 162 162 154 153 152 142 140 137 136 141 144 147 140 134 128 128 113 76 107 71 39 18 83 320
265 278 284 284 289 302 300 315 308 316 320 316 340 317 311 306 278 194 175 172 170 166 159 159 152 148 146 147 145 145 154 161 159 162 179 158 180 174 84 339 139 113 94 119